This is the latest recevied weather packets stored in our database for station/object 4S6DRJ-13. If no packets are shown the sender has not sent any weather packets the latest 10 day(s).
| Time | Temp. | Humidity | Pressure | Rain* | Wind** | Luminosity | Snow |
|---|---|---|---|---|---|---|---|
| 1788175428 | 30° C | 75% | 1007 hPa | 0 mm | 1.34 m/s, 148° | 107 W/m² | - |
| 1788175367 | 30° C | 75% | 1006.9 hPa | 0 mm | 1.79 m/s, 204° | 129 W/m² | - |
| 1788175306 | 30° C | 75% | 1007 hPa | 0 mm | 2.24 m/s, 208° | 146 W/m² | - |
| 1788175246 | 30° C | 75% | 1007.2 hPa | 0 mm | 1.34 m/s, 219° | 296 W/m² | - |
| 1788175185 | 30° C | 75% | 1007.1 hPa | 0 mm | 1.79 m/s, 214° | 293 W/m² | - |
| 1788175124 | 30° C | 75% | 1007.1 hPa | 0 mm | 1.79 m/s, 15° | 275 W/m² | - |
| 1788175063 | 30° C | 75% | 1006.9 hPa | 0 mm | 2.68 m/s, 294° | 205 W/m² | - |
| 1788175002 | 29.44° C | 75% | 1007 hPa | 0 mm | 1.79 m/s, 214° | 367 W/m² | - |
| 1788174940 | 29.44° C | 75% | 1007.1 hPa | 0 mm | 2.24 m/s, 242° | 363 W/m² | - |
| 1788174880 | 30° C | 75% | 1007 hPa | 0 mm | 2.68 m/s, 217° | 287 W/m² | - |
| 1788174819 | 30° C | 74% | 1006.9 hPa | 0 mm | 2.24 m/s, 196° | 302 W/m² | - |
| 1788174757 | 30° C | 75% | 1007 hPa | 0 mm | 3.13 m/s, 219° | 142 W/m² | - |
| 1788174697 | 30° C | 76% | 1007 hPa | 0 mm | 0.89 m/s, 287° | 129 W/m² | - |
| 1788174636 | 30° C | 76% | 1006.9 hPa | 0 mm | 1.34 m/s, 245° | 145 W/m² | - |
| 1788174575 | 30° C | 75% | 1007.1 hPa | 0 mm | 1.79 m/s, 225° | 165 W/m² | - |
| 1788174514 | 30° C | 75% | 1006.8 hPa | 0 mm | 1.34 m/s, 278° | 154 W/m² | - |
| 1788174453 | 30° C | 75% | 1007.2 hPa | 0 mm | 1.79 m/s, 230° | 143 W/m² | - |
| 1788174392 | 30° C | 75% | 1007.1 hPa | 0 mm | 1.34 m/s, 271° | 134 W/m² | - |
| 1788174331 | 30° C | 74% | 1007.1 hPa | 0 mm | 1.79 m/s, 145° | 130 W/m² | - |
| 1788174270 | 30° C | 74% | 1007.1 hPa | 0 mm | 2.68 m/s, 251° | 138 W/m² | - |
| 1788174209 | 30° C | 74% | 1006.9 hPa | 0 mm | 2.68 m/s, 229° | 171 W/m² | - |
| 1788174148 | 30° C | 74% | 1006.8 hPa | 0 mm | 1.79 m/s, 176° | 227 W/m² | - |
| 1788174087 | 30° C | 74% | 1007.1 hPa | 0 mm | 0.45 m/s, 283° | 443 W/m² | - |
| 1788173965 | 30.56° C | 73% | 1007 hPa | 0 mm | 3.13 m/s, 214° | 392 W/m² | - |
| 1788173904 | 30.56° C | 73% | 1007 hPa | 0 mm | 2.24 m/s, 215° | 171 W/m² | - |
* Rain latest hour (hover to see other rain measurements)
** Current wind speed in m/s (hover to see current wind gust speed)